Location: Recife
(8.0585°S, 34.8848°W)
Time: 10:33:28
(UTC-03:00)

Transit 2A Rocket - Pass Details

Date: 16 April 2026
Orbit: 587 x 895 km, 66.7° (Epoch: 14 May)

Event Time Altitude Azimuth Distance (km) Brightness Sun altitude
Rises 11:55:02 0° 340° (NNW) 2,819 8.2 69.6°
Reaches altitude 10° 11:57:16 10° 341° (NNW) 1,907 7.6 69.4°
Maximum altitude 12:01:30 88° 65° (ENE) 591 6.1 68.9°
Drops below altitude 10° 12:05:49 10° 159° (SSE) 1,934 7.0 68.3°
Sets 12:08:06 0° 159° (SSE) 2,861 7.8 68.0°
